{"data":{"norad_id":67538,"intl_designator":"2026-014G","name":"STARLINK-36397","alt_names":[],"object_type":"PAYLOAD","status":"ACTIVE","operator":null,"country":"US","launch_date":"2026-01-22","launch_site_code":"AFWTR","launch_vehicle":null,"mission":null,"orbit_class":"UNKNOWN","rcs_meters":null,"size_class":null,"mass_kg":null,"dimensions":null,"purposes":["comms"],"wikipedia_slug":null,"has_3d_model":false,"image_url":null,"decayed_at":null,"tle_current":{"epoch":"2026-05-25T03:38:59.991072Z","epoch_age_seconds":65931,"freshness":"FRESH","line1":"1 67538U 26014G   26145.15208323  .00020986  00000+0  65026-3 0  9990","line2":"2 67538  97.2858  32.2282 0002043  93.9458 266.2018 15.33458161 20505","mean_motion":15.33458161,"eccentricity":0.0002043,"inclination_deg":97.2858,"raan_deg":32.2282,"arg_perigee_deg":93.9458,"mean_anomaly_deg":266.2018,"bstar":0.00065026,"rev_number":2050,"period_min":93.905398700995,"perigee_km":464.105861022,"apogee_km":466.90217274149,"semimajor_km":6843.6410168817,"source":"CELESTRAK","updated_at":"2026-05-25T13:38:21.607766Z"}}}